Tracking 19564 objects as of 20-Mar-2019
HD Live streaming from Space Station
objects crossing your sky now

FENGYUN 1C DEB

Track FENGYUN 1C DEB now!
10-day predictions


NORAD ID: 31768
Int'l Code: 1999-025CFT
Perigee: 736.8 km
Apogee: 815.2 km
Inclination: 99.1 °
Period: 100.2 minutes
Semi major axis: 7146 km
RCS: 0.011 m2 (small)
Launch date: May 10, 1999
Source: People's Republic of China (PRC)
Launch site: Taiyaun Space Center, China (TSC)

Note: This is SATELLITE DEBRIS
aabbcc
Your satellite tracking list
Your tracking list is empty




NASA's NSSDC Master Catalog

Two Line Element Set (TLE):
1 31768U 99025CFT 19078.60561979  .00000792  00000-0  27941-3 0  9992
2 31768  99.0729 311.7617 0054898 109.5899 280.9103 14.36869810614419
Source of the keplerian elements: AFSPC